Regional Weather Roundup
Issued by NWS

Home | Current Version | Previous Version | Graphics & Text | Print | Product List | Glossary On
Versions: 1 2 3 4 5 6 7 8 9 10 11 12 13 14 15 16 17 18 19 20 21 22 23 24 25 26 27 28 29 30 31 32 33 34 35 36 37 38 39 40 41 42 43 44 45 46 47 48 49 50
000
ASUS43 KFSD 050302
RWRSD

WEATHER ROUNDUP FOR SOUTH DAKOTA
NATIONAL WEATHER SERVICE SIOUX FALLS SD
1000 PM CDT WED MAY 04 2016

NOTE: "FAIR" INDICATES FEW OR NO CLOUDS BELOW 12,000 FEET WITH NO
SIGNIFICANT WEATHER AND/OR OBSTRUCTIONS TO VISIBILITY.


SDZ001>005-009-010-012>017-050400-
NORTHWEST AND NORTH CENTRAL SOUTH DAKOTA

CITY           SKY/WX    TMP DP  RH WIND       PRES   REMARKS
BUFFALO          N/A     63  43  48 SE13      29.92S
FAITH            N/A     59  44  57 SE14      30.01R
MOBRIDGE       CLEAR     59  47  64 SE6       29.98R
$$

SDZ012>016-024>037-041>051-057-063-072>074-050400-
SOUTHWEST AND SOUTH CENTRAL SOUTH DAKOTA

CITY           SKY/WX    TMP DP  RH WIND       PRES   REMARKS
RAPID CTY ARPT CLEAR     56  43  61 SE6       30.01S
PIERRE         CLEAR     61  42  49 S6        30.01R
CUSTER         CLEAR     57  36  45 S8        30.13R
PHILIP         CLEAR     55  46  71 E6        30.01S
PINE RIDGE     CLEAR     55  42  61 E6        30.04S
WINNER         FAIR      55  43  63 SE9       30.05R
$$

SDZ004>011-016>023-039-040-050400-
NORTHEAST SOUTH DAKOTA

CITY           SKY/WX    TMP DP  RH WIND       PRES   REMARKS
ABERDEEN       CLEAR     56  36  47 SE5       29.99R
WATERTOWN      CLEAR     58  31  35 CALM      30.01R
BROOKINGS      CLEAR     56  30  37 N3        30.01R
SISSETON         N/A     52  35  52 CALM      29.99R
$$

SDZ017-020-022-023-036>040-048>070-050400-
SOUTHEAST SOUTH DAKOTA

CITY           SKY/WX    TMP DP  RH WIND       PRES   REMARKS
SIOUX FALLS    CLEAR     51  34  52 NW5       30.01R
HURON          CLEAR     59  40  49 CALM      30.01R
MITCHELL       CLEAR     57  43  59 SW3       30.02R
YANKTON        CLEAR     54  37  54 W6        30.02R
$$

ABBREVIATIONS USED IN REMARKS
   TC - TEMPERATURE IN CELSIUS
  WCI - WIND CHILL INDEX
   HX - HEAT INDEX
  VSB - VISIBILITY




USA.gov is the U.S. government's official web portal to all federal, state and local government web resources and services.